Location: Newark
(0.5300°S, 127.4800°E)
Time: 17:23:55
(UTC+00:00)

A-11 Canister half - Visible Passes

Search period start: 19 October 2019 00:00
Search period end: 29 October 2019 00:00
Orbit: 1527 x 1682 km, 47.3° (Epoch: 18 October)

Date Brightness Start Highest point End Pass type
(mag) Time Alt. Az. Time Alt. Az. Time Alt. Az.
19 Oct 10.1 09:30:16 10° WSW 09:39:22 44° NW 09:48:11 10° NNE visible
19 Oct 11.0 18:16:05 11° NNE 18:20:28 15° NE 18:25:13 10° ENE visible
19 Oct 9.2 20:16:03 10° NW 20:25:38 80° NE 20:35:34 10° SE visible
20 Oct 11.0 17:56:31 12° NNE 17:58:46 13° NE 18:02:47 10° ENE visible
20 Oct 9.2 19:54:53 12° NNW 20:03:59 76° NE 20:13:52 10° SE visible
21 Oct 11.1 17:36:56 12° NE 17:37:04 12° NE 17:40:09 10° ENE visible
21 Oct 9.2 19:35:19 20° NNW 19:42:22 71° NE 19:52:10 10° SE visible
22 Oct 9.2 19:15:41 31° NNW 19:20:45 66° NE 19:30:28 10° SE visible
23 Oct 9.3 18:56:02 44° N 18:59:07 61° NE 19:08:44 10° SE visible
24 Oct 9.3 18:36:18 54° NNE 18:37:30 57° NE 18:47:00 10° SE visible
24 Oct 9.9 20:34:40 11° WNW 20:42:27 31° SW 20:50:48 10° S visible
25 Oct 11.3 09:32:40 10° WNW 09:34:57 11° NW 09:37:14 10° NNW visible
25 Oct 9.4 18:16:31 52° ENE 18:16:31 52° ENE 18:25:15 10° SE visible
25 Oct 9.8 20:14:52 18° W 20:20:47 33° SW 20:29:20 10° SSE visible
26 Oct 9.8 17:56:40 42° E 17:56:40 42° E 18:03:29 10° ESE visible
26 Oct 9.7 19:55:01 26° W 19:59:08 35° SW 20:07:50 10° SSE visible
27 Oct 10.3 17:36:43 31° E 17:36:43 31° E 17:41:43 10° ESE visible
27 Oct 9.5 19:35:04 33° WSW 19:37:28 38° SW 19:46:21 10° SSE visible
28 Oct 10.7 17:16:43 22° ESE 17:16:43 22° ESE 17:19:55 10° ESE visible
28 Oct 9.4 19:15:03 40° WSW 19:15:50 41° SW 19:24:50 10° SSE visible
